, FL

(GMT )
Crestview

Weather History for KEGI - June, 2013

Change the Weather History Date:

Thursday, June 20, 2013

  Actual Average Record
Temperature  
Mean Temperature 81 °F -  
Max Temperature 91 °F - - ()
Min Temperature 71 °F - - ()
Cooling Degree Days 16    
Growing Degree Days 31 (Base 50)    
Moisture  
Dew Point 71 °F    
Average Humidity 74    
Maximum Humidity 99    
Minimum Humidity 46    
Precipitation  
Precipitation 0.24 in - - ()
Sea Level Pressure  
Sea Level Pressure 30.07 in    
Wind  
Wind Speed 3 mph (North)    
Max Wind Speed 14 mph    
Max Gust Speed -    
Visibility 9 miles    
Events Rain , Thunderstorm    
T = Trace of Precipitation, MM = Missing Value Source: NWS Daily Summary

Daily Weather History Graph

Daily Weather History Graph

Search for Another Location

Airport or City:

Trip Planner

Search our weather history database for the weather conditions in past years. The results will help you decide how hot, cold, wet, or windy it might be!

Date:

Astronomy

Jun. 20, 2013 Rise Set
Actual Time 5:43 AM CDT 7:51 PM CDT
Civil Twilight 5:16 AM CDT 8:19 PM CDT
Nautical Twilight 4:42 AM CDT 8:53 PM CDT
Astronomical Twilight 4:06 AM CDT 9:29 PM CDT
Moon 5:00 PM CDT (6/20) 3:01 AM CDT (6/20)
Length of Visible Light 15h 03m
Length of Day
14h 07m
Waxing Gibbous, 89% of the Moon is Illuminated
Jun 20
Waxing Gibbous
Jun 23
Full
Jun 29
Last Quarter
Jul 8
New
Jul 15
First Quarter

Hourly Weather History & Observations

Time (CDT) Temp. Heat Index Dew Point Humidity Pressure Visibility Wind Dir Wind Speed Gust Speed Precip Events Conditions
12:58 AM 73.2 °F - 72.7 °F 98% 30.04 in 10.0 mi Calm Calm - N/A   Clear
1:58 AM 73.0 °F - 72.7 °F 99% 30.03 in 10.0 mi North 1.2 mph - N/A   Partly Cloudy
2:58 AM 73.4 °F - 72.9 °F 98% 30.02 in 10.0 mi NNW 2.3 mph - N/A   Mostly Cloudy
3:58 AM 72.3 °F - 72.0 °F 99% 30.02 in 10.0 mi North 2.3 mph - N/A   Clear
4:58 AM 72.0 °F - 71.6 °F 99% 30.04 in 10.0 mi South 4.6 mph - N/A   Clear
5:58 AM 71.6 °F - 71.2 °F 99% 30.06 in 10.0 mi NNW 1.2 mph - N/A   Clear
6:58 AM 73.0 °F - 72.5 °F 98% 30.07 in 10.0 mi NNE 1.2 mph - N/A   Clear
7:58 AM 77.4 °F - 72.7 °F 85% 30.09 in 10.0 mi NNE 4.6 mph - N/A   Clear
8:58 AM 81.5 °F 86.3 °F 72.3 °F 74% 30.10 in 10.0 mi NNE 5.8 mph - N/A   Scattered Clouds
9:53 AM 82.4 °F 86.3 °F 69.8 °F 66% 30.10 in 10.0 mi NNE 4.6 mph - N/A   Mostly Cloudy
9:55 AM 84.2 °F 88.4 °F 69.8 °F 62% 30.10 in 10.0 mi Variable 4.6 mph - N/A   Mostly Cloudy
9:56 AM 84.2 °F 88.4 °F 69.8 °F 62% 30.10 in 10.0 mi Variable 4.6 mph - N/A   Mostly Cloudy
9:57 AM 83.5 °F 87.4 °F 69.6 °F 63% 30.10 in 10.0 mi NE 4.6 mph - N/A   Scattered Clouds
10:04 AM 84.2 °F 88.4 °F 69.8 °F 62% 30.11 in 10.0 mi North 4.6 mph - N/A   Mostly Cloudy
10:08 AM 84.2 °F 88.4 °F 69.8 °F 62% 30.10 in 10.0 mi NE 5.8 mph - N/A   Scattered Clouds
10:56 AM 84.2 °F 88.4 °F 69.8 °F 62% 30.11 in 10.0 mi Variable 1.2 mph - N/A   Mostly Cloudy
10:59 AM 84.9 °F 88.8 °F 69.3 °F 59% 30.10 in 10.0 mi Calm Calm - N/A   Scattered Clouds
11:55 AM 87.1 °F 90.9 °F 68.4 °F 54% 30.09 in 10.0 mi Calm Calm - N/A   Scattered Clouds
12:56 PM 87.8 °F 91.4 °F 68.0 °F 52% 30.08 in 10.0 mi Variable 2.3 mph - N/A   Scattered Clouds
12:59 PM 88.7 °F 92.6 °F 68.5 °F 51% 30.07 in 10.0 mi Calm Calm - N/A   Scattered Clouds
1:14 PM 89.6 °F 92.2 °F 66.2 °F 46% 30.07 in 10.0 mi Variable 5.8 mph - N/A   Light Drizzle
1:22 PM 89.6 °F 94.7 °F 69.8 °F 52% 30.07 in 10.0 mi North 6.9 mph - N/A   Scattered Clouds
1:56 PM 90.1 °F 94.0 °F 68.0 °F 48% 30.06 in 10.0 mi NW 5.8 mph - N/A   Mostly Cloudy
2:24 PM 91.4 °F 95.4 °F 68.0 °F 46% 30.06 in 10.0 mi North 6.9 mph - N/A Thunderstorm Thunderstorm
2:42 PM 89.6 °F 93.4 °F 68.0 °F 49% 30.05 in 10.0 mi NW 3.5 mph - N/A Rain , Thunderstorm Light Thunderstorms and Rain
2:55 PM 91.0 °F 97.1 °F 70.3 °F 51% 30.05 in 10.0 mi NW 4.6 mph - 0.00 in Rain , Thunderstorm Light Thunderstorms and Rain
3:52 PM 91.0 °F 97.1 °F 70.3 °F 51% 30.05 in 10.0 mi SSW 4.6 mph - 0.00 in Rain , Thunderstorm Light Thunderstorms and Rain
3:55 PM 84.0 °F 90.2 °F 72.7 °F 69% 30.04 in 10.0 mi SSW 4.6 mph - 0.00 in Rain , Thunderstorm Light Thunderstorms and Rain
4:49 PM 84.2 °F 89.6 °F 71.6 °F 66% 30.04 in 10.0 mi South 8.1 mph - N/A   Mostly Cloudy
4:57 PM 84.0 °F 89.0 °F 71.2 °F 65% 30.04 in 10.0 mi South 6.9 mph - 0.00 in   Mostly Cloudy
5:55 PM 78.1 °F - 69.1 °F 74% 30.06 in 4.0 mi WSW 6.9 mph - 0.01 in Rain , Thunderstorm Light Thunderstorms and Rain
6:45 PM 75.2 °F - 69.8 °F 83% 30.05 in 8.0 mi NNW 13.8 mph - N/A Rain , Thunderstorm Light Thunderstorms and Rain
6:55 PM 73.9 °F - 69.6 °F 86% 30.06 in 5.0 mi NNW 13.8 mph - 0.18 in Rain , Thunderstorm Light Thunderstorms and Rain
7:55 PM 73.8 °F - 71.1 °F 91% 30.07 in 7.0 mi SSE 8.1 mph - 0.04 in Rain , Thunderstorm Light Thunderstorms and Rain
8:25 PM 73.4 °F - 71.6 °F 94% 30.07 in 7.0 mi SE 1.2 mph - N/A   Overcast
8:55 PM 74.5 °F - 71.4 °F 90% 30.08 in 8.0 mi Calm Calm - 0.00 in   Overcast
9:55 PM 74.1 °F - 71.8 °F 92% 30.09 in 8.0 mi South 2.3 mph - 0.00 in Rain Light Rain
10:11 PM 75.2 °F - 71.6 °F 89% 30.10 in 8.0 mi Calm Calm - N/A   Mostly Cloudy
10:55 PM 73.4 °F - 72.1 °F 96% 30.09 in 10.0 mi North 3.5 mph - 0.00 in   Mostly Cloudy
11:55 PM 72.7 °F - 71.8 °F 97% 30.10 in 10.0 mi North 3.5 mph - N/A   Mostly Cloudy
11:58 PM 72.7 °F - 71.8 °F 97% 30.10 in 10.0 mi North 4.6 mph - 0.01 in   Clear